FW8870 Weather Reports


Display with metric or nautical units.
time (UTC)temp
F
wind
direction
speed
MPH
gust
MPH
rain 1hr
in
rain 24hr
in
rain mn
in
humidity
%
barometer
mb
20260903074321 58 355 0.0 0.0 0.00 0.00 0.00 77 1008.5
20260903073817 58 150 2.0 3.0 0.00 0.00 0.00 77 1008.5
20260903073312 58 28 0.0 1.0 0.00 0.00 0.00 77 1008.3
20260903072808 58 68 4.0 6.0 0.00 0.00 0.00 77 1008.3
20260903072306 59 246 1.0 1.0 0.00 0.00 0.00 77 1008.3
20260903071801 59 350 0.0 0.0 0.00 0.00 0.00 76 1008.2
20260903071256 59 22 4.0 6.0 0.00 0.00 0.00 75 1008.2
20260903070756 59 339 0.0 0.0 0.00 0.00 0.00 75 1008.1
20260903070252 59 18 0.0 1.0 0.00 0.00 0.00 77 1008.1
20260903065747 58 178 2.0 5.0 0.00 0.03 0.03 79 1008.2
20260903065246 58 51 1.0 1.0 0.00 0.03 0.03 80 1008.1
20260903064745 59 5 0.0 0.0 0.00 0.03 0.03 77 1008.4
20260903064240 59 4 0.0 0.0 0.00 0.03 0.03 76 1008.1
20260903063737 59 342 0.0 1.0 0.00 0.03 0.03 76 1008.1
20260903063231 60 9 1.0 1.0 0.00 0.03 0.03 74 1008.1
20260903062727 59 72 4.0 6.0 0.00 0.03 0.03 75 1008.0
20260903062227 60 100 1.0 1.0 0.00 0.03 0.03 75 1008.1
20260903061723 60 153 2.0 3.0 0.00 0.03 0.03 74 1008.0
20260903061221 60 19 2.0 2.0 0.00 0.03 0.03 73 1007.9
20260903060717 60 188 4.0 6.0 0.00 0.03 0.03 74 1007.9
20260903060212 60 211 2.0 2.0 0.00 0.03 0.03 73 1008.1
20260903055709 61 316 0.0 0.0 0.00 0.03 0.03 73 1008.1
20260903055208 60 20 2.0 2.0 0.00 0.03 0.03 74 1008.4
20260903054702 61 102 3.0 5.0 0.00 0.03 0.03 73 1008.1
20260903054153 61 190 1.0 3.0 0.00 0.03 0.03 73 1008.3
20260903053649 61 175 5.0 7.0 0.00 0.03 0.03 72 1008.3
20260903053144 61 16 2.0 2.0 0.00 0.03 0.03 71 1008.3
20260903052640 61 160 5.0 6.0 0.00 0.03 0.03 71 1008.3
20260903052135 61 67 1.0 2.0 0.00 0.03 0.03 71 1008.0
20260903051630 61 12 5.0 7.0 0.00 0.03 0.03 70 1008.0
20260903051126 61 30 3.0 6.0 0.00 0.03 0.03 71 1007.8
20260903050625 61 96 3.0 3.0 0.00 0.03 0.03 70 1007.9
20260903050120 62 145 3.0 5.0 0.00 0.03 0.03 69 1007.9
20260903045620 62 30 4.0 5.0 0.00 0.03 0.03 69 1008.0
20260903045117 62 247 2.0 5.0 0.00 0.03 0.03 69 1007.7
20260903044612 62 28 2.0 5.0 0.00 0.03 0.03 69 1007.7
20260903044108 62 77 2.0 3.0 0.00 0.03 0.03 69 1007.6
20260903043604 62 291 1.0 1.0 0.00 0.03 0.03 70 1007.5
20260903043103 62 171 3.0 5.0 0.00 0.03 0.03 71 1007.4
20260903042557 61 342 0.0 0.0 0.00 0.03 0.03 72 1007.2
20260903042053 61 2 1.0 1.0 0.00 0.03 0.03 74 1007.1
20260903041549 62 63 2.0 2.0 0.00 0.03 0.03 74 1007.0
20260903041044 62 204 5.0 7.0 0.00 0.03 0.03 75 1006.7
20260903040543 62 195 3.0 5.0 0.00 0.03 0.03 75 1006.7
20260903040040 62 111 6.0 7.0 0.00 0.03 0.03 75 1006.5
20260903035540 62 123 5.0 6.0 0.00 0.03 0.03 76 1006.3
20260903035036 61 29 1.0 2.0 0.00 0.03 0.03 80 1006.4
20260903034531 61 38 0.0 1.0 0.00 0.03 0.03 81 1006.4
20260903034026 61 335 0.0 1.0 0.00 0.03 0.03 80 1006.2
20260903033521 61 113 3.0 3.0 0.00 0.03 0.03 80 1005.8
20260903033017 61 112 1.0 1.0 0.00 0.03 0.03 82 1005.9
20260903032512 61 165 2.0 2.0 0.00 0.03 0.03 85 1005.9
20260903032007 60 332 0.0 0.0 0.00 0.03 0.03 85 1005.8
20260903031507 60 156 3.0 5.0 0.00 0.03 0.03 87 1005.6
20260903031002 60 128 4.0 5.0 0.00 0.03 0.03 86 1005.4
20260903030457 60 170 5.0 6.0 0.00 0.03 0.03 84 1005.1
20260903025953 61 64 1.0 1.0 0.00 0.03 0.03 82 1005.2
20260903025449 60 156 3.0 3.0 0.00 0.03 0.03 84 1005.0
20260903024944 60 204 2.0 3.0 0.00 0.03 0.03 86 1005.1
20260903024443 60 294 3.0 5.0 0.00 0.03 0.03 86 1005.1
20260903023938 60 344 0.0 0.0 0.00 0.03 0.03 87 1004.9
20260903023434 60 1 1.0 1.0 0.00 0.03 0.03 90 1005.0
20260903022929 60 0 0.0 1.0 0.00 0.03 0.03 90 1005.1
20260903022428 61 163 1.0 2.0 0.00 0.03 0.03 86 1005.0
20260903021926 60 116 1.0 2.0 0.00 0.03 0.03 86 1005.0
20260903021422 61 273 0.0 0.0 0.00 0.03 0.03 87 1005.0
20260903020917 61 167 3.0 3.0 0.00 0.03 0.03 86 1005.0
20260903020412 61 292 1.0 1.0 0.00 0.03 0.03 88 1005.1
20260903015907 60 76 5.0 7.0 0.00 0.03 0.03 86 1005.2
20260903015403 61 227 2.0 3.0 0.00 0.03 0.03 88 1004.8
20260903014858 61 137 5.0 6.0 0.00 0.03 0.03 88 1005.1
20260903014357 60 101 2.0 3.0 0.00 0.03 0.03 89 1005.0
20260903013852 60 110 3.0 3.0 0.00 0.03 0.03 90 1005.1
20260903013352 59 15 2.0 2.0 0.00 0.03 0.03 91 1005.5
20260903012851 59 357 1.0 1.0 0.00 0.03 0.03 92 1005.2
20260903012351 59 30 1.0 1.0 0.00 0.03 0.03 94 1005.0
20260903011849 59 330 0.0 1.0 0.00 0.03 0.03 94 1005.3
20260903011344 59 131 1.0 1.0 0.00 0.03 0.03 94 1005.0
20260903010840 59 325 2.0 2.0 0.05 0.03 0.03 94 1004.8
20260903010335 59 322 0.0 0.0 0.05 0.03 0.03 94 1005.3
20260903005833 59 169 4.0 6.0 0.07 0.02 0.02 94 1005.2
20260903005329 59 316 0.0 0.0 0.07 0.02 0.02 94 1004.8
20260903004824 60 141 2.0 2.0 0.00 0.01 0.01 92 1005.2
20260903004320 60 80 2.0 3.0 0.05 0.01 0.01 90 1005.2
20260903003816 60 3 0.0 1.0 0.05 0.01 0.01 89 1004.8
20260903003310 61 51 5.0 6.0 0.00 0.00 0.00 87 1005.2
20260903002810 62 125 7.0 9.0 0.00 0.00 0.00 83 1005.1
20260903002309 63 65 3.0 3.0 0.00 0.00 0.00 81 1004.9
20260903001804 63 87 4.0 5.0 0.00 0.00 0.00 78 1005.0
20260903001259 64 124 4.0 5.0 0.00 0.00 0.00 74 1004.8
20260903000754 65 99 2.0 3.0 0.00 0.00 0.00 70 1004.7
20260903000249 66 98 2.0 3.0 0.00 0.00 0.00 68 1004.6
20260902235747 66 130 3.0 5.0 0.00 0.00 0.00 67 1004.6
20260902235243 66 357 3.0 5.0 0.00 0.00 0.00 66 1004.4
20260902234742 67 45 7.0 9.0 0.00 0.00 0.00 66 1004.4
20260902234242 67 5 1.0 1.0 0.00 0.00 0.00 65 1004.1
20260902233742 67 92 1.0 1.0 0.00 0.00 0.00 65 1004.2
20260902233236 67 260 1.0 1.0 0.00 0.00 0.00 64 1004.1
20260902232735 68 239 2.0 2.0 0.00 0.00 0.00 64 1004.2
20260902232235 68 78 2.0 2.0 0.00 0.00 0.00 63 1004.3
20260902231734 67 81 2.0 3.0 0.00 0.00 0.00 63 1004.1
20260902231230 67 157 5.0 8.0 0.00 0.00 0.00 64 1004.2
20260902230724 68 139 7.0 10.0 0.00 0.00 0.00 63 1004.2
20260902230223 68 123 0.0 1.0 0.00 0.00 0.00 65 1004.3
20260902225718 68 68 5.0 6.0 0.00 0.00 0.00 62 1004.2
20260902225218 68 156 3.0 3.0 0.00 0.00 0.00 62 1004.0
20260902224717 69 331 0.0 0.0 0.00 0.00 0.00 64 1004.1
20260902224212 69 5 0.0 1.0 0.00 0.00 0.00 61 1004.0
20260902223708 69 305 0.0 0.0 0.00 0.00 0.00 62 1004.3
20260902223208 69 168 4.0 5.0 0.00 0.00 0.00 60 1004.1
20260902222707 69 297 2.0 5.0 0.00 0.00 0.00 60 1004.1
20260902222201 70 42 4.0 6.0 0.00 0.00 0.00 57 1004.0
20260902221655 70 191 3.0 3.0 0.00 0.00 0.00 57 1003.8
20260902221154 70 69 4.0 5.0 0.00 0.00 0.00 56 1004.0
20260902220650 70 218 3.0 3.0 0.00 0.00 0.00 55 1004.1
20260902220145 70 88 3.0 3.0 0.00 0.00 0.00 55 1004.1
20260902215641 70 147 4.0 5.0 0.00 0.00 0.00 55 1004.0
20260902215136 70 140 1.0 2.0 0.00 0.00 0.00 56 1004.2
20260902214631 70 297 3.0 3.0 0.00 0.00 0.00 55 1004.3
20260902214130 70 211 6.0 7.0 0.00 0.00 0.00 54 1004.3
20260902213626 71 19 4.0 6.0 0.00 0.00 0.00 56 1004.3
20260902213125 71 265 1.0 1.0 0.00 0.00 0.00 56 1004.4
20260902212621 71 208 3.0 5.0 0.00 0.00 0.00 56 1004.1
20260902212117 71 165 4.0 5.0 0.00 0.00 0.00 56 1004.2
20260902211613 71 189 2.0 2.0 0.00 0.00 0.00 57 1004.4
20260902211108 71 20 4.0 5.0 0.00 0.00 0.00 55 1004.4
20260902210607 71 105 2.0 2.0 0.00 0.00 0.00 55 1004.5
20260902205601 71 63 5.0 6.0 0.00 0.00 0.00 55 1004.3
20260902205057 72 45 7.0 9.0 0.00 0.00 0.00 54 1004.5
20260902204556 72 218 5.0 7.0 0.00 0.00 0.00 53 1004.3
20260902204051 71 145 4.0 5.0 0.00 0.00 0.00 54 1004.5
20260902203547 71 310 4.0 9.0 0.00 0.00 0.00 55 1004.6
20260902203046 71 315 1.0 2.0 0.00 0.00 0.00 56 1004.2
20260902202542 70 300 1.0 1.0 0.00 0.00 0.00 57 1004.8
20260902202038 71 353 2.0 2.0 0.00 0.00 0.00 55 1004.8
20260902201534 71 101 2.0 3.0 0.00 0.00 0.00 56 1004.7
20260902201033 71 107 4.0 5.0 0.00 0.00 0.00 54 1004.7
20260902200528 71 182 9.0 13.0 0.00 0.00 0.00 53 1004.9
20260902200024 71 95 5.0 8.0 0.00 0.00 0.00 54 1004.9
20260902195520 72 159 4.0 7.0 0.00 0.00 0.00 54 1004.9
20260902195019 72 320 5.0 6.0 0.00 0.00 0.00 53 1005.0
20260902194518 73 11 2.0 3.0 0.00 0.00 0.00 52 1005.0
20260902194014 73 184 11.0 15.0 0.00 0.00 0.00 51 1004.9
20260902193510 74 98 7.0 9.0 0.00 0.00 0.00 50 1005.1
20260902193009 73 246 5.0 6.0 0.00 0.00 0.00 50 1005.1
20260902192508 73 190 7.0 8.0 0.00 0.00 0.00 52 1005.2
20260902192007 73 255 2.0 3.0 0.00 0.00 0.00 53 1005.2
20260902191503 72 106 8.0 9.0 0.00 0.00 0.00 52 1005.1
20260902190957 73 145 3.0 7.0 0.00 0.00 0.00 56 1005.2
20260902190452 72 168 7.0 9.0 0.00 0.00 0.00 52 1005.4
20260902185948 71 84 3.0 3.0 0.00 0.00 0.00 53 1005.4
20260902185444 71 187 3.0 3.0 0.00 0.00 0.00 55 1005.3
20260902184939 72 119 7.0 9.0 0.00 0.00 0.00 54 1005.3
20260902184434 71 109 4.0 6.0 0.00 0.00 0.00 51 1005.5
20260902183930 71 148 4.0 7.0 0.00 0.00 0.00 54 1005.8
20260902183426 72 36 0.0 0.0 0.00 0.00 0.00 56 1005.8
20260902182921 72 30 4.0 7.0 0.00 0.00 0.00 54 1005.9
20260902182418 73 28 5.0 7.0 0.00 0.00 0.00 51 1005.9
20260902181914 73 237 8.0 10.0 0.00 0.00 0.00 51 1006.0
20260902181409 71 115 3.0 6.0 0.00 0.00 0.00 54 1006.0
20260902180903 72 148 7.0 11.0 0.00 0.00 0.00 54 1006.0
20260902180358 71 103 5.0 8.0 0.00 0.00 0.00 56 1006.3
20260902175853 70 173 7.0 10.0 0.00 0.00 0.00 55 1006.2
20260902175349 70 142 5.0 6.0 0.00 0.00 0.00 57 1006.3
20260902174844 70 150 3.0 5.0 0.00 0.00 0.00 56 1006.4
20260902174342 70 170 7.0 9.0 0.00 0.00 0.00 57 1006.7
20260902173837 69 178 3.0 6.0 0.00 0.00 0.00 60 1006.8
20260902173336 69 179 8.0 11.0 0.00 0.00 0.00 58 1006.7
20260902172831 68 95 7.0 11.0 0.00 0.00 0.00 58 1006.7
20260902172331 69 133 3.0 5.0 0.00 0.00 0.00 58 1006.9
20260902171825 69 118 6.0 10.0 0.00 0.00 0.00 59 1007.2
20260902171320 69 147 6.0 7.0 0.00 0.00 0.00 60 1006.8
20260902170812 69 155 2.0 3.0 0.00 0.00 0.00 60 1007.1
20260902170307 68 101 10.0 15.0 0.00 0.00 0.00 61 1007.2
20260902165803 68 299 3.0 5.0 0.00 0.00 0.00 61 1007.3
20260902165308 68 90 6.0 8.0 0.00 0.00 0.00 63 1007.0
20260902164756 68 182 3.0 5.0 0.00 0.00 0.00 64 1007.2
20260902164250 68 111 3.0 6.0 0.00 0.00 0.00 64 1007.3
20260902163745 67 97 3.0 6.0 0.00 0.00 0.00 65 1007.0
20260902163244 67 107 6.0 8.0 0.00 0.00 0.00 65 1007.3
20260902162738 66 61 2.0 5.0 0.00 0.00 0.00 67 1007.4
20260902162233 66 207 7.0 9.0 0.00 0.00 0.00 67 1007.1
20260902161728 66 191 8.0 10.0 0.00 0.00 0.00 68 1007.2
20260902161223 65 225 6.0 8.0 0.00 0.00 0.00 70 1007.3
20260902160720 65 123 3.0 5.0 0.00 0.00 0.00 70 1007.1
20260902160214 66 120 4.0 6.0 0.00 0.00 0.00 70 1007.4
20260902155712 66 112 3.0 6.0 0.00 0.00 0.00 70 1007.6
20260902155211 67 142 7.0 9.0 0.00 0.00 0.00 69 1007.5
20260902154706 67 144 1.0 2.0 0.00 0.00 0.00 70 1007.5
20260902154201 66 37 2.0 2.0 0.00 0.00 0.00 71 1007.8
20260902153700 65 137 2.0 3.0 0.00 0.00 0.00 71 1007.8
20260902153155 65 47 1.0 1.0 0.00 0.00 0.00 73 1007.9
20260902152651 66 245 2.0 2.0 0.00 0.00 0.00 73 1007.9
20260902152147 64 41 3.0 3.0 0.00 0.00 0.00 73 1007.9
20260902151642 64 350 1.0 2.0 0.00 0.00 0.00 75 1007.7
20260902151137 64 184 3.0 3.0 0.00 0.00 0.00 75 1007.9
20260902150632 64 84 5.0 9.0 0.00 0.00 0.00 74 1008.0
20260902150127 64 269 1.0 2.0 0.00 0.00 0.00 74 1007.9
20260902145621 64 344 3.0 3.0 0.00 0.00 0.00 74 1007.9
20260902145121 64 153 4.0 6.0 0.00 0.00 0.00 74 1007.7
20260902144618 63 123 3.0 6.0 0.00 0.00 0.00 74 1007.8
20260902144118 64 193 5.0 7.0 0.00 0.00 0.00 74 1007.9
20260902143613 64 339 2.0 2.0 0.00 0.00 0.00 74 1007.8
20260902143109 63 146 3.0 3.0 0.00 0.00 0.00 74 1007.9
20260902142605 63 354 2.0 2.0 0.00 0.00 0.00 76 1008.0
20260902142100 63 271 0.0 0.0 0.00 0.00 0.00 75 1008.0
20260902141559 63 19 2.0 2.0 0.00 0.00 0.00 76 1007.9
20260902141055 63 144 2.0 6.0 0.00 0.00 0.00 76 1007.9
20260902140549 63 197 2.0 2.0 0.00 0.00 0.00 76 1007.8
20260902140046 63 44 4.0 5.0 0.00 0.00 0.00 76 1007.8
20260902135544 63 55 1.0 2.0 0.00 0.00 0.00 76 1007.9
20260902135039 63 88 3.0 6.0 0.00 0.00 0.00 76 1007.9
20260902134535 63 126 4.0 6.0 0.00 0.00 0.00 76 1007.9
20260902134035 63 128 5.0 7.0 0.00 0.00 0.00 77 1007.8
20260902133529 63 109 9.0 14.0 0.00 0.00 0.00 77 1008.1
20260902133024 63 112 5.0 8.0 0.00 0.00 0.00 78 1007.8
20260902132519 63 127 4.0 7.0 0.00 0.00 0.00 78 1007.9
20260902132014 63 189 5.0 8.0 0.00 0.00 0.00 78 1007.8
20260902131511 63 109 5.0 7.0 0.00 0.00 0.00 77 1007.9
20260902131010 63 105 7.0 10.0 0.00 0.00 0.00 78 1007.9
20260902130506 63 43 4.0 6.0 0.00 0.00 0.00 77 1008.0
20260902130001 63 56 3.0 7.0 0.00 0.00 0.00 78 1007.7
20260902125457 62 155 5.0 7.0 0.00 0.00 0.00 78 1007.7
20260902124952 63 332 0.0 0.0 0.00 0.00 0.00 78 1007.7
20260902124449 63 33 4.0 7.0 0.00 0.00 0.00 77 1007.7
20260902123943 62 71 2.0 5.0 0.00 0.00 0.00 78 1007.7
20260902123440 62 354 0.0 1.0 0.00 0.00 0.00 78 1008.0
20260902122938 62 45 2.0 3.0 0.00 0.00 0.00 79 1008.1
20260902122434 62 130 3.0 3.0 0.00 0.00 0.00 79 1007.7
20260902121929 62 175 3.0 5.0 0.00 0.00 0.00 79 1007.7
20260902121424 62 12 1.0 3.0 0.00 0.00 0.00 79 1007.9
20260902120925 62 349 0.0 1.0 0.00 0.00 0.00 79 1007.9
20260902120421 62 117 3.0 3.0 0.00 0.00 0.00 79 1008.1
20260902115920 62 181 5.0 7.0 0.00 0.00 0.00 78 1008.0
20260902115416 62 115 7.0 11.0 0.00 0.00 0.00 78 1008.5
20260902114913 62 159 6.0 8.0 0.00 0.00 0.00 78 1008.1
20260902114408 62 178 3.0 5.0 0.00 0.00 0.00 79 1008.4
20260902113903 62 355 0.0 1.0 0.00 0.00 0.00 79 1008.3
20260902113359 62 109 1.0 2.0 0.00 0.00 0.00 78 1008.4
20260902112858 62 95 3.0 7.0 0.00 0.00 0.00 78 1008.4
20260902112354 62 210 3.0 3.0 0.00 0.00 0.00 79 1008.5
20260902111850 62 260 1.0 1.0 0.00 0.00 0.00 79 1008.7
20260902111346 62 61 3.0 5.0 0.00 0.00 0.00 78 1008.5
20260902110842 62 55 3.0 5.0 0.00 0.00 0.00 78 1008.6
20260902110338 62 152 5.0 7.0 0.00 0.00 0.00 78 1008.6
20260902105837 63 192 2.0 3.0 0.00 0.00 0.00 78 1008.8
20260902105332 62 91 4.0 7.0 0.00 0.00 0.00 78 1008.9
20260902104827 63 328 1.0 2.0 0.00 0.00 0.00 77 1008.8
20260902104323 63 202 3.0 3.0 0.00 0.00 0.00 78 1008.6
20260902103818 63 357 1.0 1.0 0.00 0.00 0.00 77 1008.9
20260902103313 63 221 5.0 8.0 0.00 0.00 0.00 78 1009.0
20260902102808 63 44 1.0 2.0 0.00 0.00 0.00 77 1008.9
20260902102307 63 297 0.0 0.0 0.00 0.00 0.00 78 1008.8
20260902101801 63 340 0.0 0.0 0.00 0.00 0.00 77 1009.1
20260902101255 63 161 2.0 2.0 0.00 0.00 0.00 77 1008.9
20260902100754 63 62 7.0 8.0 0.00 0.00 0.00 77 1008.9
20260902100249 63 101 6.0 7.0 0.00 0.00 0.00 77 1008.9
20260902095743 63 354 1.0 1.0 0.00 0.00 0.00 78 1008.8
20260902095238 63 34 1.0 2.0 0.00 0.00 0.00 78 1009.2
20260902094733 63 19 2.0 3.0 0.00 0.00 0.00 77 1009.1
20260902094229 63 161 5.0 8.0 0.00 0.00 0.00 77 1009.1
20260902093728 63 62 3.0 3.0 0.00 0.00 0.00 77 1009.0
20260902093224 63 248 2.0 3.0 0.00 0.00 0.00 77 1009.2
20260902092723 64 44 3.0 5.0 0.00 0.00 0.00 76 1009.2
20260902092218 64 16 2.0 2.0 0.00 0.00 0.00 76 1009.3
20260902091718 64 85 3.0 5.0 0.00 0.00 0.00 76 1009.3
20260902091214 64 85 0.0 1.0 0.00 0.00 0.00 76 1009.2
20260902090710 64 27 1.0 2.0 0.00 0.00 0.00 75 1009.4
20260902090209 64 206 4.0 7.0 0.00 0.00 0.00 76 1009.5
20260902085704 64 122 5.0 5.0 0.00 0.00 0.00 76 1009.5
20260902085159 64 314 2.0 3.0 0.00 0.00 0.00 76 1009.3
20260902084655 64 338 1.0 2.0 0.00 0.00 0.00 75 1009.7
20260902084151 64 76 1.0 1.0 0.00 0.00 0.00 75 1009.6
20260902083646 64 113 5.0 7.0 0.00 0.00 0.00 75 1009.6
20260902083145 64 314 0.0 1.0 0.00 0.00 0.00 75 1009.7
20260902082641 64 150 7.0 9.0 0.00 0.00 0.00 75 1009.6
20260902082138 64 85 3.0 7.0 0.00 0.00 0.00 76 1009.6
20260902081634 64 76 6.0 7.0 0.00 0.00 0.00 76 1009.6
20260902081134 64 79 2.0 2.0 0.00 0.00 0.00 76 1009.7
20260902080629 64 124 7.0 9.0 0.00 0.00 0.00 77 1009.5
20260902080126 64 81 7.0 9.0 0.00 0.00 0.00 77 1009.4
20260902075625 63 340 2.0 3.0 0.00 0.00 0.00 79 1009.5
20260902075122 63 267 0.0 1.0 0.00 0.00 0.00 79 1009.6